GFSNW_925_spd_057.txt.gz
Wind_Speed
28 29 30 30 32 37 18 8 1 10 4 2 1 4 5 9 13 12 8 5 7 11 12 8 7 9 9 7 9 6 8 3 6 10 18 15 11 3 0 3 7 3 3 8
27 27 27 27 26 27 15 5 2 9 11 4 4 7 16 12 12 15 13 10 11 9 7 5 8 11 13 16 8 5 7 4 5 10 6 5 6 6 6 4 4 10 5 8
25 26 26 25 22 25 12 3 2 4 6 7 12 6 12 12 17 13 10 9 10 12 9 8 4 5 5 10 10 9 6 3 3 6 7 9 12 19 17 5 2 5 6 8
23 24 23 23 23 21 4 2 4 4 4 5 7 12 9 11 9 9 12 7 13 11 6 8 5 10 9 12 7 5 4 4 7 12 13 14 16 18 19 13 9 4 11 14
22 21 21 22 25 14 3 3 3 4 3 5 11 8 8 10 11 8 9 10 13 10 5 7 11 11 9 5 6 6 3 4 7 13 12 17 17 17 20 19 16 15 13 16
19 18 18 19 24 16 7 10 3 2 4 7 6 3 5 10 8 7 7 6 4 6 9 9 10 11 10 10 8 3 1 3 5 7 8 13 12 12 16 18 18 11 12 10
17 16 16 16 19 22 6 9 8 3 4 5 5 7 4 6 2 2 5 4 5 6 9 12 11 12 11 12 10 8 7 5 5 4 5 3 9 8 14 18 17 18 19 13
14 13 13 13 14 16 12 11 7 3 4 4 4 8 8 7 3 1 4 7 5 5 7 4 6 4 4 6 6 5 6 4 4 3 4 10 14 12 10 7 10 10 8 12
10 10 10 11 9 13 11 14 13 4 3 5 2 2 5 5 5 4 2 2 6 7 5 1 3 3 4 4 9 10 10 4 2 2 4 6 6 6 13 4 9 9 12 12
7 8 7 7 8 9 13 6 11 5 3 2 4 4 3 4 3 2 1 3 3 6 3 4 3 2 2 4 6 6 5 4 3 7 6 6 12 19 10 3 5 19 17 9
6 6 5 6 6 8 11 4 10 6 3 0 4 3 2 3 3 2 3 2 5 4 4 3 2 2 2 2 2 5 4 5 3 5 3 5 20 13 6 11 19 14 19 17
6 5 5 4 4 4 8 4 6 10 4 4 15 15 2 0 4 2 3 4 2 2 1 1 0 1 2 2 2 2 1 2 3 3 5 13 8 9 13 11 16 18 17 18
6 6 5 4 3 3 5 7 10 14 4 8 8 4 10 8 10 3 1 3 4 3 2 2 1 2 2 2 1 1 2 2 2 5 3 10 14 12 10 14 16 20 21 19
6 6 6 5 4 5 6 6 11 10 5 3 1 5 8 10 11 7 4 2 6 11 3 2 3 3 4 2 1 2 2 5 3 5 10 13 8 13 13 15 15 18 22 22
6 5 5 5 4 5 9 9 10 8 1 3 6 18 16 12 9 11 9 10 5 3 4 2 3 2 3 3 1 2 3 4 2 3 8 9 11 13 17 15 17 19 22 10
7 7 6 6 5 5 4 2 3 2 1 2 3 4 4 5 12 13 11 8 3 3 3 3 4 4 5 4 4 5 8 7 8 4 5 8 11 11 13 14 14 13 16 18
8 7 8 7 6 7 6 4 2 2 3 2 3 3 2 11 9 4 3 7 4 4 3 3 2 3 4 1 2 5 6 7 8 8 4 7 8 6 10 14 15 16 14 17
10 8 8 7 7 11 11 12 15 12 5 4 3 4 4 13 5 4 5 4 3 3 4 2 5 4 0 2 4 3 8 8 6 6 7 10 10 7 5 11 12 11 11 11
9 5 3 3 4 5 2 5 6 4 4 4 3 3 3 7 4 4 3 3 3 4 4 5 3 3 2 6 5 5 5 3 3 6 8 4 7 5 4 5 9 11 11 10
3 2 4 3 5 4 1 2 3 3 3 3 3 3 6 4 3 4 3 1 2 2 4 4 3 3 5 6 5 5 5 5 5 4 3 4 6 3 3 2 2 4 6 10
1 5 2 2 4 2 4 3 4 3 2 1 4 5 8 3 4 7 5 1 1 2 3 5 3 2 4 5 6 4 6 7 4 2 1 4 6 3 3 2 2 2 8 11
4 13 15 5 4 4 4 1 4 3 3 2 3 3 2 2 1 3 0 2 1 2 5 3 1 2 6 5 5 2 5 4 7 1 6 6 7 1 5 3 1 4 4 6
5 3 4 3 3 1 3 3 2 3 3 3 3 5 1 2 3 3 1 4 2 2 2 2 1 4 4 5 4 9 6 5 10 11 10 5 8 5 7 6 4 3 3 2
3 3 4 4 4 1 4 4 5 4 6 5 8 5 3 1 1 2 2 1 2 2 2 1 1 3 4 3 4 1 7 4 4 5 5 8 6 12 8 6 1 1 1 4
4 4 3 5 4 4 3 3 3 4 5 2 2 2 3 2 3 2 3 2 2 2 3 1 1 2 2 3 2 4 10 5 5 5 6 8 10 7 11 8 6 1 2 10
4 5 6 3 3 4 3 1 2 5 1 3 2 3 3 3 1 2 2 5 3 3 4 2 3 5 2 1 4 2 7 10 9 15 5 2 8 9 4 7 3 1 10 12
5 5 5 2 2 3 1 3 2 8 4 3 2 3 3 1 1 0 1 3 6 8 3 4 5 6 5 3 3 4 6 3 6 9 2 2 6 12 11 1 10 7 12 16

GFSNW_925_spd_060.txt.gz
Wind_Speed
27 28 28 28 32 38 14 6 4 23 4 4 2 4 5 7 10 12 8 9 9 5 8 6 4 5 6 11 5 4 4 3 3 6 5 4 5 8 7 4 1 3 4 4
27 26 27 27 29 33 8 2 3 20 14 4 4 5 9 11 9 8 6 9 8 6 6 5 5 5 11 13 9 5 5 4 5 13 6 8 6 8 7 4 3 3 5 4
25 25 25 24 27 23 4 2 4 5 5 1 5 4 8 4 10 14 9 7 7 8 7 5 5 8 11 12 8 14 6 3 4 4 4 4 7 14 9 5 3 3 2 4
23 23 24 25 26 17 3 3 1 3 3 5 8 9 5 11 6 6 12 7 9 5 6 7 5 7 7 7 13 7 4 2 4 2 4 5 8 14 11 5 4 3 6 6
20 21 22 26 26 14 9 3 3 5 3 3 10 6 5 8 5 5 3 4 5 6 4 1 4 5 4 3 8 7 5 3 5 7 8 9 8 10 12 9 5 5 7 5
18 18 19 24 28 15 8 7 6 4 6 4 4 3 3 5 3 6 5 3 2 5 4 4 5 4 4 6 1 2 0 3 3 3 7 8 7 4 5 8 3 0 4 6
16 16 16 18 22 22 9 7 2 4 2 3 1 4 6 3 4 2 4 6 4 4 6 5 4 2 5 5 8 5 4 5 3 3 4 3 6 7 9 11 3 6 2 7
13 13 14 14 16 18 17 15 5 3 2 2 5 6 4 7 3 2 4 2 2 4 7 4 5 5 5 5 5 8 4 4 2 3 4 7 12 7 7 7 6 12 10 13
10 11 10 12 13 16 10 17 12 4 4 3 1 3 2 2 2 5 2 3 8 7 4 3 4 3 2 5 10 7 7 5 4 2 3 5 1 14 15 12 4 13 13 15
9 8 8 9 10 12 11 9 16 3 2 4 4 3 3 3 2 2 2 1 5 5 3 3 3 1 1 1 4 5 4 4 3 3 4 4 8 15 12 4 4 16 12 14
8 7 6 6 7 10 10 3 9 7 0 5 2 5 4 1 2 3 4 4 5 3 4 2 1 2 1 1 1 0 1 2 1 3 3 5 10 6 2 8 10 14 16 14
6 6 5 4 4 6 9 3 8 12 3 6 12 17 11 7 10 5 1 6 4 4 3 2 3 2 2 3 1 2 3 4 3 6 5 5 2 5 8 8 13 14 18 16
6 6 6 4 3 5 7 6 11 11 3 5 3 5 11 12 12 11 4 2 5 3 4 3 2 2 3 3 3 3 3 3 3 1 5 3 10 8 6 12 14 16 16 17
5 4 5 5 3 4 7 7 8 7 3 2 6 12 8 16 18 17 11 10 6 9 3 3 3 3 5 3 4 3 4 3 5 6 8 6 6 7 9 11 14 14 17 15
6 4 4 4 4 5 8 10 1 2 2 2 5 21 19 18 22 22 13 23 6 3 2 2 3 3 4 2 2 5 6 6 5 5 7 5 9 7 9 10 15 12 13 14
6 6 4 4 3 3 4 3 5 3 1 1 4 5 6 12 20 23 14 15 4 3 4 3 3 3 4 4 3 5 8 6 7 5 5 7 9 8 10 7 12 14 12 13
7 8 5 5 4 4 3 4 7 6 4 0 4 4 3 3 2 2 2 3 4 4 3 3 4 2 4 3 4 6 9 11 8 11 5 9 7 5 6 8 12 17 16 15
8 8 5 3 4 7 7 7 16 9 4 2 2 4 4 5 2 3 4 2 2 2 4 2 3 2 2 3 5 6 8 7 7 8 9 12 8 7 9 11 7 10 12 12
8 3 1 1 3 2 2 5 11 10 2 2 2 2 3 3 3 3 1 4 3 1 3 4 4 2 4 6 6 7 7 7 7 7 7 8 9 12 10 6 4 7 10 11
2 1 0 2 3 7 12 4 2 2 2 2 3 2 3 3 3 2 2 3 2 2 3 3 2 3 4 5 6 5 7 7 6 3 5 5 5 7 6 5 4 5 5 11
2 3 2 3 7 3 3 3 2 2 3 3 3 4 3 2 2 3 1 2 2 4 3 1 3 3 3 1 2 4 7 9 9 8 5 6 6 6 6 3 8 8 7 7
1 8 8 3 3 2 3 2 2 4 3 2 2 5 4 1 2 2 1 2 2 1 3 2 1 4 7 6 5 6 7 6 7 10 10 12 12 11 8 5 8 7 9 10
4 2 2 3 2 1 3 2 4 3 2 4 4 2 3 3 3 2 1 2 1 3 1 2 4 4 8 7 6 7 7 5 10 10 14 15 18 13 12 10 9 10 4 9
2 2 4 4 4 4 3 5 4 5 4 5 2 1 2 2 3 1 1 3 1 1 3 3 3 6 7 7 7 3 7 6 7 9 13 13 12 14 13 12 5 8 0 4
3 2 4 6 3 2 3 2 2 6 3 3 2 1 3 1 3 0 2 1 2 3 3 3 4 4 4 5 3 6 7 6 5 7 7 6 7 1 6 9 4 7 7 5
3 4 3 3 4 3 3 3 5 3 2 2 0 3 3 0 3 1 1 1 3 3 3 3 3 4 4 5 4 5 12 11 11 12 9 13 14 5 8 8 6 15 13 7
4 4 4 3 3 4 4 3 4 2 2 1 2 2 2 3 1 1 2 3 4 4 4 3 5 5 1 6 16 4 11 16 16 1 15 15 10 14 1 6 10 15 14 11

GFSNW_925_spd_063.txt.gz
Wind_Speed
25 25 27 30 32 30 9 4 4 25 5 5 2 3 6 6 11 9 7 5 6 4 7 7 4 6 7 12 4 4 3 4 3 4 6 11 16 4 4 4 5 3 3 2
24 25 27 30 28 25 4 3 2 18 7 4 3 4 5 8 11 7 6 8 7 6 5 5 6 5 8 13 6 3 4 4 3 4 6 8 7 7 5 2 2 2 2 3
22 24 27 31 25 19 4 3 4 5 5 2 5 3 6 4 8 8 5 5 5 6 8 8 4 4 5 7 10 15 5 4 5 4 3 3 3 5 5 5 4 5 2 6
21 23 27 31 25 16 4 4 1 1 3 5 6 6 3 5 5 5 8 6 6 2 5 4 4 5 6 6 12 7 5 4 2 3 2 2 1 4 5 4 2 1 3 4
19 22 25 30 24 12 10 3 3 4 2 3 7 6 3 4 3 4 3 4 3 6 4 3 1 3 3 1 6 5 5 1 3 5 5 4 3 4 5 7 5 6 6 1
17 19 22 28 27 10 7 5 2 4 5 3 4 3 0 1 3 5 3 3 3 3 1 5 6 6 3 2 2 3 3 3 3 4 6 7 5 6 5 2 1 3 4 4
14 16 18 21 23 22 9 5 3 4 2 3 1 2 3 1 2 3 1 3 3 3 5 1 5 5 4 8 8 0 3 3 2 1 5 2 4 7 8 1 7 8 6 9
11 12 15 16 18 14 20 12 3 3 1 1 3 6 3 4 6 3 2 4 1 3 5 4 5 5 5 5 6 8 3 4 2 3 2 5 2 5 5 4 2 7 6 8
10 10 11 13 14 14 14 22 9 4 4 3 1 3 2 1 2 5 3 3 5 6 3 4 3 1 2 3 5 5 4 5 4 2 3 4 0 5 7 2 5 6 10 7
10 9 9 10 12 12 10 11 19 4 2 3 3 2 3 4 2 1 4 4 6 5 3 3 2 2 0 1 1 3 4 3 3 3 3 3 3 9 5 5 2 8 9 11
8 8 7 8 9 10 9 6 11 5 2 5 3 5 4 2 2 3 3 4 4 4 4 3 1 2 2 1 2 1 3 3 2 2 1 6 4 4 1 4 6 11 16 16
6 7 6 5 7 8 7 1 5 7 4 5 4 13 13 12 12 6 2 4 3 4 4 1 2 1 2 3 2 1 3 5 4 7 5 3 4 5 6 4 9 13 16 16
4 4 5 6 4 6 6 4 7 3 3 5 3 5 7 14 16 14 4 1 5 4 4 4 3 2 3 4 5 5 3 3 2 3 4 4 2 2 3 6 8 10 14 14
4 2 3 3 3 4 5 5 4 1 3 1 6 5 3 8 19 19 10 10 8 10 3 3 3 3 4 4 3 3 4 4 5 4 9 7 7 6 7 7 7 9 15 14
2 3 2 2 2 4 6 5 2 2 2 2 4 16 14 14 17 18 14 19 6 3 3 3 4 3 3 1 1 4 6 6 5 6 7 5 5 5 6 9 8 9 13 15
3 3 3 3 3 3 2 3 3 2 4 1 3 6 5 5 18 17 17 15 3 3 4 3 3 3 4 3 4 6 8 6 7 5 5 7 7 6 10 8 10 10 10 16
6 5 4 4 4 4 3 3 3 4 2 1 4 5 3 3 2 3 3 4 1 2 2 4 4 3 6 3 4 5 9 13 7 8 2 6 8 7 6 10 14 14 12 17
6 6 4 2 4 7 6 4 10 5 2 2 2 4 5 4 1 1 0 2 2 2 3 2 3 3 2 4 7 5 6 6 5 9 10 11 7 6 7 12 10 7 6 9
5 3 2 1 3 2 2 5 4 13 1 1 1 2 3 3 1 1 2 1 2 1 3 3 5 3 4 7 7 6 8 8 8 7 8 7 8 10 7 7 6 7 7 8
1 2 2 2 2 4 10 1 3 3 2 1 3 2 3 2 1 2 1 1 2 2 4 4 4 3 4 5 6 6 7 9 6 5 6 5 6 5 6 6 6 8 7 13
2 2 1 1 8 1 2 0 2 2 2 3 4 5 3 1 2 3 1 1 1 1 3 1 2 2 4 4 3 6 7 10 11 9 5 6 6 5 6 7 8 12 13 13
3 1 1 3 1 1 1 2 1 3 4 3 3 4 4 2 2 2 0 1 1 3 1 1 3 4 7 5 4 6 6 8 8 12 11 14 8 12 10 9 11 11 10 14
0 1 1 2 3 1 4 3 3 3 3 3 2 1 1 2 2 2 1 1 3 1 2 2 4 4 5 6 4 6 7 7 8 9 14 13 12 13 12 13 14 8 2 5
2 2 3 4 4 4 5 5 4 4 3 3 2 1 2 1 2 2 2 2 1 2 2 4 3 5 7 6 5 2 7 6 7 9 12 12 13 15 14 12 10 5 3 4
2 3 4 6 4 2 2 1 2 3 2 3 2 1 2 0 2 1 2 1 3 4 4 3 5 6 4 5 6 6 7 7 6 10 9 10 12 11 11 5 6 7 6 4
2 4 3 3 0 3 1 3 4 2 2 2 3 3 2 1 2 1 3 1 3 4 3 4 4 5 3 4 2 2 11 11 13 8 7 10 9 9 7 5 10 13 8 5
3 4 3 4 3 5 4 4 3 3 2 2 3 2 1 2 1 2 3 4 4 4 4 3 3 4 4 4 5 2 9 15 11 6 3 4 4 4 4 8 13 14 9 5

GFSNW_925_spd_069.txt.gz
Wind_Speed
25 29 33 29 24 15 8 3 3 21 10 5 3 4 4 6 13 10 7 5 7 5 7 6 4 4 5 13 5 4 4 4 5 5 2 4 8 4 1 7 6 2 1 5
24 28 31 27 24 15 3 3 2 13 7 4 4 3 4 7 10 10 7 7 7 6 4 5 4 3 5 12 7 4 4 3 5 3 4 2 4 6 3 2 1 2 6 6
23 27 29 30 22 12 4 2 3 4 5 3 3 3 5 3 7 8 7 6 3 3 6 8 4 3 5 8 9 10 1 3 3 1 4 2 3 5 7 3 2 7 3 11
21 25 27 29 19 13 4 4 2 1 3 7 7 4 3 7 5 4 10 6 9 3 3 3 4 4 3 7 11 5 3 4 4 7 5 2 3 1 4 5 4 2 10 8
19 23 26 28 20 14 9 2 2 3 3 2 6 5 5 9 5 6 7 7 9 10 6 5 3 2 3 3 6 4 3 4 4 3 4 3 3 4 2 1 1 3 5 6
16 19 23 25 23 12 5 3 2 2 2 2 2 3 3 4 2 6 7 4 6 10 7 3 5 5 4 3 3 3 2 4 3 4 3 2 5 1 2 4 5 2 5 5
13 14 17 20 22 17 6 3 1 3 3 2 2 3 3 5 4 4 4 5 3 3 9 12 11 10 9 9 7 3 4 4 2 4 4 5 5 3 2 4 7 5 4 6
13 11 13 16 14 16 14 5 2 2 3 2 3 4 4 3 3 3 4 3 3 4 4 5 4 2 1 6 6 6 3 3 3 4 5 2 3 1 1 1 4 5 4 8
11 10 9 10 13 10 10 13 5 1 5 3 3 3 3 3 2 2 2 3 3 2 2 1 3 3 1 2 2 3 4 3 1 3 3 6 5 5 1 2 4 3 3 6
10 11 9 8 8 9 7 8 6 1 2 4 5 3 3 3 2 1 0 1 1 2 2 2 1 2 1 3 4 4 2 2 3 3 3 1 6 4 4 3 4 1 2 4
9 9 9 8 6 8 3 3 8 2 1 2 7 6 5 4 2 2 4 3 2 2 2 1 3 3 3 1 2 3 4 5 3 2 2 5 10 6 5 4 4 3 1 3
7 8 7 8 6 6 4 2 5 5 2 2 4 6 4 3 6 4 2 2 3 2 3 2 2 2 4 4 2 4 3 3 3 6 3 2 8 2 4 3 3 2 1 4
5 6 5 6 5 5 6 3 6 2 1 2 2 3 3 10 10 7 2 2 4 4 1 3 2 2 3 3 4 3 5 4 3 1 6 10 9 7 4 6 4 5 4 5
5 5 4 4 5 5 5 3 4 3 2 1 3 3 2 1 5 11 4 8 8 8 2 2 2 2 5 2 1 4 2 9 6 5 7 4 9 11 8 10 8 8 9 10
5 5 4 4 5 4 4 4 4 5 2 2 3 6 1 6 7 11 9 16 7 3 3 2 2 2 4 1 2 4 8 7 6 5 7 3 4 8 11 10 11 10 8 8
6 6 5 4 5 2 1 2 1 0 1 1 1 2 2 5 6 10 13 10 3 2 3 1 1 2 4 4 4 6 13 9 9 3 7 4 6 8 10 9 9 9 8 9
7 8 7 4 3 2 2 2 3 3 1 1 2 1 1 2 3 2 3 3 2 2 2 3 3 3 4 2 4 1 9 14 11 6 9 5 9 6 12 13 8 6 9 11
7 7 5 2 1 2 1 0 6 3 1 1 1 1 1 0 2 2 2 3 2 2 2 2 1 3 2 4 10 6 9 7 12 14 13 3 4 6 8 8 7 8 9 10
7 4 3 2 1 0 3 6 7 6 1 0 1 1 2 1 1 1 2 2 3 2 3 2 3 2 4 8 7 4 4 7 8 14 14 12 12 11 9 10 9 9 9 8
4 2 2 2 1 5 4 2 1 1 1 0 2 1 2 2 2 2 2 1 1 2 2 2 1 3 11 9 4 3 7 8 7 9 10 12 13 11 11 12 12 10 9 7
3 2 1 3 8 2 1 1 2 2 2 3 3 6 2 2 3 2 1 2 2 2 3 2 1 3 3 3 9 9 9 10 16 13 10 10 9 9 9 9 12 10 10 9
3 4 3 3 2 1 2 2 2 4 3 4 3 3 4 2 1 2 2 2 2 2 2 2 2 4 3 4 10 11 10 12 13 15 14 14 14 14 13 10 10 11 8 9
2 2 2 2 2 2 4 4 2 3 4 5 4 2 2 2 2 1 2 3 1 2 2 3 4 4 3 4 4 7 10 10 11 13 15 13 14 15 16 15 13 9 9 11
2 2 1 3 4 5 5 4 1 0 1 4 3 3 2 1 3 1 2 2 2 3 3 4 2 4 4 1 2 3 4 4 6 10 13 15 14 13 14 16 13 10 13 14
2 2 4 6 5 4 3 3 2 3 3 3 3 2 3 2 2 2 2 3 3 4 2 2 3 2 5 3 3 3 2 3 5 8 7 10 11 9 12 11 12 13 14 15
2 4 3 4 3 4 3 4 3 4 4 3 1 3 3 2 2 3 5 2 4 1 2 2 3 3 3 4 4 5 5 5 7 8 8 6 1 5 8 2 9 13 16 14
3 4 5 6 5 6 4 3 2 7 5 3 3 5 2 3 2 3 3 3 2 1 1 1 1 2 3 4 6 7 8 8 8 9 7 6 7 3 2 2 7 12 14 12

GFSNW_925_spd_072.txt.gz
Wind_Speed
26 29 30 27 24 16 6 4 1 14 4 2 3 7 4 3 8 6 4 5 6 7 3 7 3 5 5 8 5 2 6 4 10 7 5 2 3 4 9 11 13 8 7 7
25 27 31 29 24 17 6 3 4 13 6 3 6 6 8 9 10 10 4 5 6 3 3 4 6 5 3 7 3 3 3 1 8 10 8 5 3 2 4 8 8 17 11 8
23 25 27 30 22 14 3 1 1 5 6 4 5 7 7 5 7 10 8 4 1 3 5 3 8 6 3 3 6 5 4 3 5 2 7 7 8 4 1 8 11 8 6 19
20 24 26 28 23 15 2 4 4 4 3 7 8 7 3 6 3 5 4 5 5 2 3 6 5 4 6 4 4 1 4 4 5 6 6 4 3 3 2 1 5 7 17 16
18 21 25 26 24 12 6 2 1 4 5 2 6 4 6 7 7 3 8 8 8 5 7 5 7 4 0 3 2 2 3 3 5 3 1 1 5 3 2 2 3 6 12 14
16 18 21 23 24 13 6 3 2 4 1 2 1 7 5 5 4 7 6 5 5 7 6 4 5 4 3 4 3 1 2 5 6 9 3 3 8 10 5 6 2 1 10 13
14 14 16 19 20 16 6 4 3 1 5 5 6 6 6 8 7 7 6 3 2 3 5 6 5 6 6 4 2 3 4 4 3 3 6 8 7 4 2 4 6 6 10 8
12 11 11 13 15 14 9 4 4 2 3 5 6 6 7 7 5 6 6 8 5 6 4 4 4 5 5 5 3 2 3 4 3 4 10 4 7 6 6 11 9 3 4 4
11 10 9 8 11 11 5 8 4 3 3 3 5 5 3 3 3 6 6 5 3 4 3 1 3 1 3 4 5 0 3 2 4 4 4 5 10 6 3 3 6 7 3 3
10 9 9 7 7 9 5 4 7 4 1 5 5 1 2 2 1 2 4 5 5 5 1 2 1 2 2 2 3 5 5 4 7 7 5 1 7 6 4 7 5 8 3 2
9 7 6 7 6 7 4 1 5 5 3 6 6 4 4 4 2 1 5 5 4 4 3 2 2 2 3 1 3 3 5 4 4 5 4 6 11 6 4 7 6 5 3 1
7 5 4 5 5 6 3 1 3 3 5 5 3 5 3 1 3 2 4 3 1 2 2 2 3 3 4 4 2 5 4 3 2 4 1 2 12 3 5 3 4 4 3 2
5 4 3 3 4 4 3 2 4 3 3 4 6 7 9 8 7 3 2 2 2 3 3 2 1 2 4 3 4 5 7 5 3 2 5 8 11 7 5 5 5 5 4 2
4 3 3 2 2 3 3 3 3 3 3 3 5 3 3 5 9 11 6 7 5 6 3 2 2 3 3 2 2 5 4 9 8 7 9 4 11 12 9 9 7 6 5 4
3 2 3 3 2 2 2 1 1 2 6 3 3 3 3 3 7 11 10 10 6 3 3 3 2 3 3 3 4 7 9 9 7 6 7 10 3 14 14 11 11 8 6 6
3 3 3 3 3 1 2 4 2 1 3 3 3 4 4 2 7 10 12 11 6 4 3 2 2 3 3 3 3 8 11 13 13 5 6 7 6 8 14 13 11 11 10 8
5 5 4 4 3 2 4 4 3 2 1 3 3 4 4 4 5 5 4 7 3 4 2 4 2 3 4 2 4 11 11 10 10 7 7 7 9 8 12 12 11 10 10 9
5 5 3 0 3 2 3 2 5 2 4 3 2 3 4 6 3 3 2 3 4 5 2 3 2 3 2 4 12 11 8 6 8 12 13 5 8 11 9 14 13 10 10 11
5 2 3 3 2 3 2 1 4 5 4 2 2 2 2 3 2 1 3 3 3 0 3 2 3 3 5 9 12 7 6 10 11 12 14 13 10 10 11 12 12 13 10 9
3 2 2 3 3 7 3 2 3 4 3 3 3 2 2 3 3 2 2 3 2 2 2 4 3 3 13 12 9 5 8 3 5 7 12 14 14 14 14 14 12 14 12 11
1 3 1 2 7 3 2 2 3 2 3 4 3 4 1 2 3 0 1 1 1 2 3 2 2 3 4 5 2 7 12 8 5 7 14 15 15 13 14 14 14 15 16 13
3 3 3 4 4 2 3 3 3 4 2 5 3 3 4 2 2 3 3 2 2 2 4 2 2 4 3 4 5 8 13 12 11 16 16 19 15 16 15 15 16 15 16 15
2 3 4 2 3 2 5 5 4 3 5 5 5 3 3 2 4 1 3 4 2 1 3 3 5 2 3 3 4 6 11 14 13 14 16 19 18 19 19 18 19 18 16 13
3 3 3 5 4 5 5 4 1 3 3 5 4 4 4 3 5 3 3 1 3 3 3 4 4 3 3 4 3 5 4 5 6 6 8 11 13 15 18 21 21 20 19 16
3 3 4 6 6 4 2 2 3 3 1 4 3 3 4 4 3 3 1 2 4 4 4 3 5 2 4 4 3 4 4 5 5 8 10 12 14 14 16 16 19 19 18 17
3 5 5 6 5 6 4 5 4 4 4 3 4 3 4 5 3 3 5 3 4 3 2 4 3 4 3 2 2 4 5 5 7 6 9 10 9 10 10 9 10 14 18 19
4 4 5 8 7 6 6 3 4 4 5 5 3 5 4 4 4 3 3 4 4 6 4 3 4 4 3 3 4 5 6 6 6 6 5 6 8 10 14 14 12 9 7 13

GFSNW_925_spd_075.txt.gz
Wind_Speed
23 25 28 26 22 13 8 8 4 8 7 8 4 9 5 4 4 6 5 7 4 7 11 8 5 5 9 2 5 6 2 8 10 17 4 4 14 15 17 12 19 15 7 8
21 24 27 27 21 16 9 3 4 6 11 4 6 5 8 8 3 5 2 3 1 5 7 2 9 1 3 4 1 3 3 9 5 6 6 10 12 10 11 15 18 14 16 10
19 23 25 27 19 11 7 4 2 4 3 4 5 5 3 6 3 5 3 2 3 11 9 9 4 6 2 2 5 5 5 7 7 6 3 16 19 9 11 14 11 12 8 23
18 21 23 25 18 10 7 4 5 5 7 7 7 4 3 2 3 2 1 2 4 8 6 12 9 6 6 5 5 5 6 10 12 3 8 9 12 14 9 16 17 13 20 19
16 18 21 23 18 11 4 3 2 4 4 1 4 3 7 5 6 5 4 4 2 4 4 9 9 5 5 6 5 5 6 3 10 10 5 5 5 6 6 8 5 8 20 19
15 15 18 21 21 15 5 2 3 5 4 3 3 6 4 5 2 6 6 4 2 5 5 5 7 6 4 4 8 4 6 9 7 14 13 4 10 12 10 8 6 11 14 18
13 13 14 17 17 13 10 6 7 3 4 5 6 6 6 7 7 6 6 3 2 4 4 5 6 3 2 4 4 7 6 9 8 12 9 13 4 1 4 6 5 8 13 13
11 12 12 12 14 11 8 6 6 3 2 6 6 6 7 8 6 6 6 6 4 2 5 5 5 6 5 5 3 6 6 7 7 11 9 5 8 7 7 12 10 2 12 10
8 9 10 9 9 9 4 8 5 6 1 6 5 5 3 3 6 6 5 4 1 3 6 2 7 2 5 4 6 5 4 6 6 7 9 14 13 11 4 2 10 10 7 7
8 6 7 8 6 6 4 3 7 7 4 7 5 1 1 1 2 3 5 5 5 6 2 2 2 1 3 3 4 5 7 7 8 8 7 1 10 7 5 9 6 10 7 6
8 5 5 6 5 5 4 3 5 7 4 7 4 3 3 4 4 4 8 5 5 6 3 2 2 3 3 2 5 6 4 3 4 8 10 10 12 6 6 10 10 10 7 6
6 3 3 4 4 4 2 3 1 4 7 8 1 5 3 4 6 3 3 6 1 5 3 1 3 3 4 5 2 6 4 3 2 4 3 5 5 3 8 6 8 5 6 7
6 2 3 2 2 3 2 4 4 5 5 6 7 9 12 9 6 4 6 2 4 3 6 1 3 2 4 4 6 6 7 5 3 2 7 6 9 7 6 4 4 5 5 6
5 3 2 2 2 2 2 4 4 5 5 5 6 4 4 7 9 6 5 4 1 2 5 4 1 1 4 6 4 4 7 6 8 10 9 4 10 10 8 7 6 6 6 4
3 3 3 3 2 2 3 4 2 2 7 5 5 6 5 7 6 8 9 5 2 3 3 4 2 2 3 7 9 9 8 11 8 7 6 9 10 15 12 11 10 9 8 7
3 3 4 3 2 3 5 5 5 1 4 4 4 9 5 4 7 8 9 8 5 2 3 1 3 1 3 3 3 10 13 10 11 11 12 6 5 3 12 12 11 11 9 8
2 4 5 4 3 3 7 5 4 0 3 4 3 6 6 5 6 7 5 8 3 4 0 5 4 2 5 2 4 10 13 10 10 13 8 8 7 7 9 12 12 9 10 10
3 4 4 0 3 4 6 3 2 2 8 4 3 3 6 11 6 4 4 5 4 4 6 1 2 4 3 4 10 11 10 12 11 9 9 10 11 9 13 13 13 11 10 11
3 2 2 1 3 3 4 2 3 5 5 4 3 3 2 6 5 3 3 1 4 2 3 3 4 3 5 9 10 12 13 10 11 11 9 12 8 10 12 12 12 12 11 12
1 1 5 4 3 3 2 2 4 1 3 5 5 1 2 5 3 4 4 4 4 3 3 5 3 4 12 12 11 8 4 6 9 11 13 16 14 12 12 13 12 14 14 15
2 5 1 3 6 3 2 2 3 3 4 5 4 4 3 2 3 3 4 3 2 2 4 3 2 3 7 1 5 2 3 10 8 9 6 7 6 13 14 14 16 15 14 15
1 3 2 3 4 2 3 3 3 4 4 5 6 4 4 3 2 3 3 2 3 2 4 2 2 5 8 2 6 3 4 11 13 11 10 12 21 17 13 16 17 20 19 17
2 4 4 2 2 3 5 6 4 4 4 5 5 5 4 3 4 3 3 3 2 1 3 3 5 5 3 2 5 4 5 10 11 15 14 11 12 16 14 13 18 20 19 23
3 4 2 5 5 6 7 5 1 4 1 5 3 3 4 3 4 3 3 2 2 1 2 5 3 4 1 3 5 4 7 8 7 8 8 10 13 14 15 18 20 19 20 18
3 3 4 7 8 8 1 1 2 3 4 3 2 1 3 4 3 2 2 3 2 4 7 3 2 1 2 4 5 6 6 6 6 4 9 13 14 14 14 17 17 19 22 18
3 5 7 7 7 7 6 8 7 4 4 2 2 3 3 5 5 5 4 2 5 3 3 3 6 5 5 5 4 4 7 8 11 12 9 10 12 11 12 13 14 16 15 12
4 6 7 8 8 7 7 6 5 2 2 4 1 3 3 4 3 3 1 4 5 7 6 8 6 4 3 3 5 6 9 10 10 11 10 10 10 11 13 13 14 16 19 14